STARLINK-2725 (48681 NORAD) Tracking and Keplerian Element Data

This shows tracking and keplerian element data for the satellite.

Feedback or suggestion? Click here.




ElementValue
Catalog48681
NameSTARLINK-2725
Epoch Orbit177
Epoch Day170.58334491
Epoch Year2021
RAAN306.2537
Inclination53.0479
Eccentricity0.0001291
Argument of Perigee54.5649
Mean Anonmoly73.6286
Mean Motion15.73203846
Decay Rate-7.27E-05
L11 48681U 21044AV 21170.58334491 -.00007270 00000-0 -47403-4 0 9996
L22 48681 53.0479 306.2537 0001291 54.5649 73.6286 15.73203846 1775

Live tracking and technical data element details for STARLINK-2725 (NORAD 48681). STARLINK-2725 can be tracked NOW for your location showing map with azimuth and elevation plus other details from your city location.

Track the satellite on the map from your city or location and see movement details for azimuth, elevation, latitude, longitude, range, height, and movement on the map or in text.







IsCatalogInMostPopularTable: catalog: 48681, numindb: 3
Update: records affected: 1



GetName: 48681 STARLINK-2725

Hit Count: updated at: Mon, 21 Jun 2021 04:33:07 GMT